Wind_Speed
6 11 16 20 24 28 31 34 36 38 35 40 39 41 38 37 38 39 40 39 36 32 30 29 31 29 26 23 20 18 19 17 21 26 28 28 28 32 31 27 28 34 26 23
9 10 11 12 13 16 21 28 31 34 34 41 41 42 39 39 41 41 40 44 42 38 35 33 34 33 29 25 22 21 17 17 21 26 29 32 33 35 33 31 32 30 28 31
14 13 14 14 16 19 21 22 24 27 31 35 41 44 38 34 43 45 46 44 43 41 41 38 35 33 30 28 26 25 19 20 25 28 28 33 35 38 35 39 39 34 38 38
17 18 18 20 20 23 21 24 26 28 31 29 38 42 41 38 40 42 40 43 47 47 43 41 39 34 32 31 29 28 27 25 29 29 30 32 36 37 36 38 35 39 40 43
19 21 23 24 24 26 27 27 29 29 32 34 33 41 44 43 36 33 37 41 46 48 48 46 42 40 37 34 34 33 32 30 31 33 34 35 35 36 39 39 40 40 39 40
18 24 27 27 28 30 32 33 33 35 38 41 41 38 40 45 47 39 39 43 50 51 48 48 47 43 43 44 40 38 36 34 32 35 38 37 37 36 37 38 41 38 38 39
21 23 28 30 32 33 35 37 39 42 43 46 45 46 44 43 47 51 46 41 50 55 55 51 51 50 49 45 45 42 38 39 39 40 40 40 41 42 41 41 42 40 39 39
23 22 28 32 34 36 36 38 41 47 47 45 45 49 50 47 43 47 54 55 50 52 57 55 54 55 54 52 48 43 41 40 42 42 39 42 43 48 48 46 46 46 45 43
30 26 28 31 34 38 40 42 44 45 47 47 46 40 45 49 44 43 44 48 57 56 57 60 59 56 56 57 56 51 47 46 43 43 42 41 42 44 49 49 49 50 49 48
31 30 30 32 34 38 41 44 44 45 45 42 39 38 39 46 45 44 46 44 48 52 58 62 65 61 52 58 55 55 54 53 53 51 53 51 47 43 48 51 52 52 51 51
32 33 33 36 37 39 41 43 44 42 40 39 35 30 32 34 42 36 44 42 43 47 57 62 67 65 58 59 55 53 58 58 59 58 58 56 58 53 51 50 50 49 50 51
31 34 35 36 38 40 41 39 40 41 38 36 36 34 36 27 41 18 33 46 44 42 50 70 64 54 67 63 52 67 64 61 63 58 60 60 64 62 59 58 57 53 51 53
33 33 34 35 37 39 38 40 37 38 36 35 38 35 32 39 32 45 34 46 40 51 57 59 42 41 34 46 26 26 32 29 33 60 72 66 69 57 55 53 54 50 48 52
34 33 33 34 36 38 35 32 32 36 34 31 30 31 24 29 36 17 25 46 63 59 47 35 43 36 30 49 48 35 31 28 32 37 34 33 34 30 30 33 37 38 37 37
35 34 33 31 32 36 36 31 31 35 31 33 25 32 19 19 22 29 37 30 37 33 32 28 27 28 28 31 31 38 30 24 31 37 41 34 33 40 43 45 46 47 50 50
35 34 33 30 31 33 34 29 34 28 30 29 27 29 28 27 28 23 23 30 30 37 34 27 20 21 24 27 27 24 25 27 29 30 31 34 38 39 40 43 48 50 50 51
33 32 32 30 31 29 29 31 30 27 28 26 24 26 25 20 23 27 24 27 31 32 27 23 22 24 24 24 26 30 26 26 29 32 33 34 34 36 38 42 46 50 51 54
29 30 30 30 29 28 27 27 27 26 23 23 21 21 23 21 21 23 25 23 25 30 30 26 27 29 28 22 20 22 22 23 26 29 31 34 35 37 38 41 43 46 47 50
29 30 29 29 28 26 27 26 26 26 23 21 20 23 23 24 24 22 21 23 20 26 26 25 29 33 33 25 19 21 24 27 31 33 35 36 37 38 40 42 43 45 46 47
29 28 28 27 29 26 22 26 28 27 25 21 21 20 23 25 27 24 21 20 23 26 27 28 34 32 32 30 28 29 31 33 35 37 38 39 41 42 43 45 45 45 46 46
28 28 28 25 28 26 21 24 27 26 21 23 20 21 23 21 22 23 23 27 30 28 28 29 29 30 32 34 36 36 36 37 37 37 37 40 42 44 45 46 48 48 49 49
29 30 28 28 28 28 24 23 22 24 19 21 24 24 26 26 27 29 28 28 28 29 32 33 33 34 36 38 41 43 44 43 41 41 41 42 44 45 47 49 51 52 53 54
30 31 30 30 29 30 26 24 24 26 23 20 17 19 22 26 26 25 26 29 30 32 33 34 35 36 37 40 42 43 43 44 45 45 47 48 50 51 51 51 52 53 53 52
30 33 33 32 29 30 29 27 25 26 27 25 25 25 26 28 27 28 29 32 35 35 36 37 38 38 39 42 43 44 44 46 48 49 51 51 50 49 47 46 45 46 47 47
30 34 35 32 29 30 29 29 28 29 32 30 29 30 34 35 33 35 37 37 36 37 39 40 41 42 43 43 43 45 47 47 48 49 49 48 46 46 45 44 44 44 45 46
36 35 36 33 30 32 30 30 27 26 25 26 28 28 33 35 36 36 37 38 37 37 38 39 41 42 42 43 45 45 47 48 48 47 46 45 45 45 45 42 41 43 43 43
Wind_Direction
309 292 282 275 271 269 266 263 258 256 249 250 252 255 251 249 257 256 253 251 251 249 246 250 259 262 260 262 262 261 255 250 254 262 250 238 240 246 237 242 239 238 239 249
308 313 305 293 288 283 276 270 268 264 258 256 251 251 255 254 251 251 252 255 253 250 244 244 249 253 255 255 260 262 257 254 244 251 246 236 235 235 247 243 245 256 244 247
300 302 295 293 296 289 291 290 289 283 266 261 257 254 246 243 251 251 251 251 253 252 251 247 243 247 248 251 251 258 256 235 244 248 238 237 240 244 240 242 242 238 240 247
299 297 295 295 294 294 290 293 295 295 290 283 258 260 243 234 240 243 246 254 254 255 252 248 244 240 252 252 249 251 253 249 245 247 252 248 245 243 245 249 247 245 243 249
296 292 293 293 292 292 292 293 294 292 290 290 274 255 249 229 225 230 235 240 251 258 257 252 246 242 241 246 246 242 241 244 250 247 248 251 250 243 243 243 244 247 248 254
291 291 292 292 292 293 293 291 296 296 294 288 273 259 255 241 227 229 237 244 250 253 253 255 254 249 247 245 246 246 243 240 245 248 248 251 253 253 252 249 253 255 252 252
295 295 297 297 295 297 299 299 300 298 292 285 267 262 261 251 236 232 231 240 247 251 253 252 256 255 252 249 246 247 246 245 241 245 250 253 254 255 255 254 255 256 257 254
291 293 296 296 297 296 298 300 302 300 295 287 267 259 261 257 251 242 237 237 240 244 251 253 251 254 258 257 251 249 244 243 245 246 255 251 257 259 258 258 260 261 261 260
294 297 299 300 297 300 302 303 302 297 294 289 283 273 266 260 255 252 247 244 244 245 247 253 251 253 256 257 253 250 247 248 252 258 262 258 255 258 256 257 259 261 262 264
292 297 298 298 297 300 303 302 302 300 294 289 286 283 271 262 255 258 247 244 248 248 247 247 251 254 247 255 257 259 255 255 255 256 263 263 258 256 255 255 254 255 256 257
297 297 300 300 299 300 302 303 303 298 292 288 286 278 272 263 251 251 244 244 245 250 247 248 249 249 252 253 259 247 258 262 266 262 252 252 257 252 249 250 252 254 257 260
289 289 292 295 297 298 301 304 300 297 292 284 278 275 274 252 257 254 232 244 244 249 255 241 248 251 253 251 231 250 253 261 259 257 262 260 254 252 251 253 255 257 262 265
283 283 288 294 297 301 306 305 304 299 290 284 279 284 269 271 255 255 243 236 239 242 254 261 245 228 280 242 235 246 222 223 248 246 254 249 245 240 246 257 261 264 266 263
285 285 290 296 300 302 306 302 300 291 290 283 283 283 293 280 266 243 257 245 247 250 257 276 271 290 284 235 293 305 292 285 289 272 266 277 250 252 259 268 262 264 270 269
284 286 289 294 300 302 306 305 292 293 290 283 277 282 293 292 277 278 271 275 251 272 276 272 277 274 275 274 287 294 298 285 284 285 286 288 280 276 281 276 272 277 269 273
286 289 291 299 300 303 305 300 300 297 293 291 282 273 273 273 285 289 277 280 269 271 281 289 300 293 287 287 288 282 281 280 274 265 267 270 274 263 270 270 275 271 270 267
287 289 294 301 299 302 300 302 302 299 293 292 282 277 283 271 282 283 275 273 270 271 281 286 291 287 292 290 286 289 287 282 275 273 270 268 268 269 270 265 262 264 265 264
282 283 291 294 298 301 301 300 301 299 295 292 284 280 276 276 271 266 268 268 268 276 291 297 305 300 293 298 272 271 272 272 269 265 267 266 266 266 267 268 267 265 267 268
282 286 288 294 298 303 300 299 296 294 293 286 279 280 280 276 274 270 270 263 279 276 283 298 301 286 294 299 286 272 273 272 271 270 269 267 266 266 267 267 267 268 268 267
283 285 289 293 296 301 292 287 291 293 295 290 273 275 277 282 283 275 271 278 298 295 281 263 269 282 287 286 285 282 280 279 278 278 277 276 275 274 271 268 267 266 267 268
283 284 286 284 286 291 284 285 288 293 291 280 271 274 284 289 289 287 277 269 268 273 280 281 282 284 287 287 285 283 282 281 280 279 277 276 276 275 271 268 268 268 268 269
284 284 284 286 287 291 291 285 285 286 292 285 270 267 269 272 275 281 284 281 277 277 279 278 279 279 282 286 287 288 287 285 285 285 284 282 279 277 274 273 271 271 270 269
283 281 284 285 288 291 295 288 277 275 275 273 276 269 265 268 271 273 279 283 282 278 279 280 280 282 284 284 285 286 287 287 288 287 287 286 285 282 279 277 276 276 276 275
284 283 285 283 288 290 289 285 278 276 264 269 258 260 260 266 265 276 284 288 286 285 284 282 283 284 285 288 289 289 289 290 291 291 291 292 291 289 287 284 282 280 279 278
281 277 280 285 289 287 283 281 282 274 270 267 270 262 264 263 273 276 279 285 287 286 285 286 287 288 289 288 289 290 290 291 291 291 290 288 287 286 284 282 281 280 280 278
274 280 284 288 285 279 279 279 278 267 259 268 263 266 267 265 279 282 278 280 283 285 284 284 285 287 288 288 289 289 290 290 289 288 285 283 284 284 283 283 284 284 281 279
Height
5833 5833 5832 5832 5832 5832 5832 5832 5833 5834 5836 5834 5836 5837 5840 5842 5842 5842 5842 5845 5848 5852 5854 5855 5855 5857 5860 5862 5865 5865 5867 5867 5868 5869 5872 5873 5875 5875 5877 5878 5881 5867 5875 5880
5832 5831 5829 5828 5827 5826 5826 5825 5825 5826 5827 5826 5827 5829 5830 5833 5832 5832 5832 5834 5840 5843 5847 5849 5851 5852 5852 5856 5859 5860 5861 5863 5864 5864 5865 5866 5867 5868 5871 5872 5873 5871 5871 5874
5828 5828 5826 5825 5824 5822 5821 5820 5819 5819 5819 5819 5816 5821 5824 5823 5823 5823 5823 5824 5828 5833 5836 5840 5842 5844 5847 5849 5852 5854 5856 5857 5856 5858 5859 5861 5861 5862 5864 5866 5867 5870 5870 5871
5825 5823 5822 5820 5819 5817 5816 5814 5813 5812 5811 5813 5809 5811 5813 5814 5814 5814 5812 5813 5815 5821 5826 5829 5832 5835 5837 5840 5842 5845 5847 5850 5849 5850 5849 5851 5852 5854 5856 5859 5862 5863 5866 5865
5821 5818 5816 5815 5813 5811 5810 5808 5806 5805 5802 5803 5804 5799 5803 5805 5808 5806 5806 5806 5807 5810 5813 5817 5820 5823 5827 5829 5831 5836 5836 5836 5837 5838 5840 5841 5844 5846 5848 5850 5852 5853 5855 5856
5817 5811 5810 5809 5806 5804 5802 5801 5799 5797 5794 5793 5787 5790 5794 5796 5799 5799 5800 5800 5801 5800 5803 5805 5807 5810 5812 5815 5818 5820 5823 5824 5826 5828 5830 5830 5832 5836 5838 5839 5841 5843 5844 5847
5810 5806 5803 5800 5798 5796 5794 5792 5790 5789 5786 5783 5777 5778 5780 5783 5787 5790 5792 5792 5790 5790 5791 5795 5795 5797 5801 5804 5808 5811 5814 5814 5817 5817 5819 5820 5822 5822 5826 5828 5829 5832 5834 5837
5804 5804 5798 5793 5790 5786 5786 5784 5781 5775 5773 5771 5767 5764 5765 5769 5775 5778 5781 5782 5779 5780 5778 5781 5785 5787 5791 5795 5800 5803 5805 5806 5806 5808 5809 5810 5811 5812 5813 5815 5816 5819 5821 5824
5793 5795 5791 5786 5781 5778 5775 5774 5770 5765 5760 5755 5753 5757 5754 5755 5762 5765 5768 5770 5768 5768 5771 5769 5772 5775 5781 5784 5788 5791 5794 5795 5795 5797 5800 5801 5802 5802 5804 5805 5806 5808 5810 5812
5786 5785 5782 5778 5775 5770 5766 5763 5759 5754 5748 5745 5744 5743 5744 5742 5748 5752 5756 5758 5759 5760 5759 5761 5761 5764 5771 5771 5775 5777 5780 5782 5785 5785 5786 5789 5792 5793 5795 5796 5796 5797 5798 5800
5777 5774 5773 5768 5765 5762 5759 5752 5747 5744 5740 5736 5734 5735 5735 5736 5737 5735 5742 5746 5748 5748 5747 5745 5751 5758 5763 5761 5764 5761 5767 5768 5768 5770 5771 5774 5777 5781 5783 5785 5786 5787 5789 5790
5770 5766 5764 5762 5756 5752 5748 5744 5738 5732 5732 5728 5726 5728 5730 5730 5729 5723 5731 5736 5739 5739 5730 5732 5738 5743 5749 5752 5742 5748 5749 5755 5757 5760 5760 5761 5762 5766 5771 5773 5774 5776 5777 5777
5762 5759 5756 5753 5749 5743 5738 5733 5729 5725 5721 5721 5718 5720 5718 5721 5719 5718 5720 5725 5725 5729 5729 5728 5731 5729 5729 5730 5729 5735 5734 5737 5741 5742 5744 5744 5745 5749 5755 5759 5761 5762 5763 5764
5752 5750 5748 5744 5739 5735 5732 5727 5720 5715 5713 5712 5713 5711 5712 5711 5711 5711 5711 5715 5716 5720 5723 5720 5719 5715 5717 5718 5716 5720 5727 5727 5729 5730 5733 5736 5737 5738 5741 5746 5748 5749 5748 5749
5742 5741 5739 5736 5731 5725 5721 5718 5713 5708 5708 5704 5709 5703 5706 5705 5705 5704 5706 5707 5707 5708 5709 5714 5712 5712 5714 5718 5716 5715 5716 5718 5723 5724 5722 5722 5728 5729 5731 5732 5733 5735 5735 5734
5732 5730 5728 5727 5722 5717 5713 5709 5704 5704 5701 5699 5700 5701 5700 5701 5699 5698 5697 5700 5700 5699 5699 5700 5699 5702 5704 5705 5705 5708 5708 5709 5712 5711 5711 5712 5714 5714 5717 5718 5719 5718 5718 5718
5725 5721 5719 5718 5714 5711 5707 5701 5698 5696 5695 5695 5694 5693 5694 5695 5694 5692 5691 5693 5693 5693 5692 5692 5694 5695 5694 5695 5694 5695 5696 5698 5698 5698 5699 5699 5699 5700 5701 5702 5702 5701 5700 5701
5718 5715 5713 5710 5706 5703 5700 5694 5692 5690 5689 5689 5688 5687 5687 5689 5689 5688 5687 5687 5687 5685 5681 5680 5680 5682 5684 5686 5685 5686 5686 5686 5686 5687 5688 5687 5687 5688 5687 5686 5687 5686 5686 5685
5710 5707 5705 5702 5698 5697 5691 5688 5686 5684 5684 5683 5683 5681 5680 5680 5680 5681 5680 5677 5676 5674 5673 5672 5674 5675 5672 5674 5677 5677 5677 5676 5675 5676 5676 5675 5675 5675 5674 5673 5673 5672 5672 5672
5702 5700 5698 5695 5690 5690 5688 5683 5680 5678 5677 5677 5677 5677 5676 5675 5673 5672 5670 5669 5670 5669 5670 5668 5666 5665 5665 5666 5667 5669 5669 5668 5666 5666 5664 5663 5661 5660 5660 5660 5659 5659 5658 5658
5694 5692 5691 5688 5685 5684 5683 5678 5673 5673 5675 5670 5669 5669 5669 5668 5668 5667 5666 5666 5663 5662 5660 5658 5657 5655 5654 5656 5658 5659 5659 5657 5656 5654 5652 5650 5648 5647 5646 5646 5645 5645 5644 5644
5686 5684 5683 5680 5678 5676 5674 5671 5669 5668 5666 5665 5664 5663 5662 5662 5662 5660 5658 5657 5656 5655 5653 5652 5650 5649 5647 5644 5642 5642 5642 5642 5642 5640 5637 5636 5634 5634 5633 5633 5631 5630 5630 5628
5679 5676 5675 5673 5671 5667 5666 5664 5661 5660 5660 5660 5658 5657 5656 5655 5654 5653 5652 5650 5649 5648 5646 5645 5643 5641 5640 5638 5636 5634 5631 5628 5626 5624 5623 5622 5620 5619 5617 5616 5614 5613 5610 5609
5670 5666 5666 5664 5664 5660 5657 5655 5654 5653 5653 5652 5652 5651 5651 5649 5646 5645 5643 5642 5640 5638 5636 5635 5634 5632 5630 5627 5624 5621 5619 5616 5612 5609 5606 5602 5600 5597 5596 5595 5594 5594 5592 5591
5661 5656 5656 5656 5656 5652 5649 5647 5645 5643 5642 5642 5643 5643 5642 5640 5639 5638 5636 5634 5631 5629 5626 5624 5622 5620 5618 5615 5612 5609 5606 5603 5600 5596 5593 5590 5588 5586 5583 5582 5580 5579 5576 5575
5648 5650 5647 5647 5646 5642 5641 5638 5636 5633 5633 5634 5634 5634 5633 5632 5630 5629 5626 5624 5622 5620 5617 5615 5612 5609 5607 5604 5601 5597 5594 5590 5587 5583 5580 5578 5576 5573 5570 5568 5565 5563 5562 5560